Time,TemperatureF,DewpointF,PressureIn,WindDirection,WindDirectionDegrees,WindSpeedMPH,WindSpeedGustMPH,Humidity,HourlyPrecipIn,Conditions,Clouds,dailyrainin,SoftwareType,DateUTC
2013-07-17 00:01:00,80.4,70.5,30.17,NNW,340,0.0,0.0,72,0.00,,,0.00,Wunderground v.1.15,2013-07-17 04:01:00,
2013-07-17 00:02:00,80.4,70.5,30.17,NNW,340,0.0,0.0,72,0.00,,,0.00,Wunderground v.1.15,2013-07-17 04:02:00,
2013-07-17 00:03:00,80.4,70.5,30.17,NNW,340,0.0,0.0,72,0.00,,,0.00,Wunderground v.1.15,2013-07-17 04:03:00,
2013-07-17 00:04:00,80.4,70.5,30.17,NNW,340,0.0,0.0,72,0.00,,,0.00,Wunderground v.1.15,2013-07-17 04:04:00,
2013-07-17 00:08:00,80.5,70.2,30.17,NNW,340,0.0,0.0,71,0.00,,,0.00,Wunderground v.1.15,2013-07-17 04:08:00,
2013-07-17 00:13:00,80.7,70.0,30.17,NNW,340,0.0,0.0,70,0.00,,,0.00,Wunderground v.1.15,2013-07-17 04:13:00,
2013-07-17 00:19:00,80.8,70.1,30.17,NNW,340,0.0,0.0,70,0.00,,,0.00,Wunderground v.1.15,2013-07-17 04:19:00,
2013-07-17 00:24:00,81.0,70.3,30.17,NNW,340,0.0,0.0,70,0.00,,,0.00,Wunderground v.1.15,2013-07-17 04:24:00,
2013-07-17 00:30:00,81.0,70.3,30.17,NNW,340,0.0,0.0,70,0.00,,,0.00,Wunderground v.1.15,2013-07-17 04:30:00,
2013-07-17 00:36:00,80.5,70.6,30.17,NNW,340,0.0,0.0,72,0.00,,,0.00,Wunderground v.1.15,2013-07-17 04:36:00,
2013-07-17 00:42:00,79.8,71.2,30.17,NNW,340,0.0,0.0,75,0.00,,,0.00,Wunderground v.1.15,2013-07-17 04:42:00,
2013-07-17 00:49:00,78.8,71.0,30.16,NNW,340,0.0,0.0,77,0.00,,,0.00,Wunderground v.1.15,2013-07-17 04:49:00,
2013-07-17 00:55:00,79.3,71.1,30.16,NNW,340,0.0,0.0,76,0.00,,,0.00,Wunderground v.1.15,2013-07-17 04:55:00,
2013-07-17 00:56:00,79.4,70.8,30.16,NNW,340,0.0,0.0,75,0.00,,,0.00,Wunderground v.1.15,2013-07-17 04:56:00,
2013-07-17 01:01:00,79.9,70.9,30.16,NNW,340,0.0,0.0,74,0.00,,,0.00,Wunderground v.1.15,2013-07-17 05:01:00,
2013-07-17 01:05:00,80.1,70.7,30.16,NNW,340,0.0,0.0,73,0.00,,,0.00,Wunderground v.1.15,2013-07-17 05:05:00,
2013-07-17 01:12:00,79.7,70.7,30.16,NNW,340,1.0,1.0,74,0.00,,,0.00,Wunderground v.1.15,2013-07-17 05:12:00,
2013-07-17 01:18:00,79.5,70.9,30.16,NNW,340,1.0,1.0,75,0.00,,,0.00,Wunderground v.1.15,2013-07-17 05:18:00,
2013-07-17 01:24:00,79.4,71.2,30.15,NNW,340,0.0,1.0,76,0.00,,,0.00,Wunderground v.1.15,2013-07-17 05:24:00,
2013-07-17 01:29:00,79.5,71.3,30.15,NNW,340,0.0,1.0,76,0.00,,,0.00,Wunderground v.1.15,2013-07-17 05:29:00,
2013-07-17 01:35:00,79.5,71.3,30.15,NNW,340,0.0,0.0,76,0.00,,,0.00,Wunderground v.1.15,2013-07-17 05:35:00,
2013-07-17 01:40:00,79.5,71.3,30.15,NNW,340,0.0,0.0,76,0.00,,,0.00,Wunderground v.1.15,2013-07-17 05:40:00,
2013-07-17 01:46:00,79.5,71.3,30.15,NNW,340,0.0,1.0,76,0.00,,,0.00,Wunderground v.1.15,2013-07-17 05:46:00,
2013-07-17 01:52:00,79.4,71.2,30.15,NNW,340,0.0,1.0,76,0.00,,,0.00,Wunderground v.1.15,2013-07-17 05:52:00,
2013-07-17 01:58:00,79.3,71.5,30.15,NNW,340,0.0,1.0,77,0.00,,,0.00,Wunderground v.1.15,2013-07-17 05:58:00,
2013-07-17 02:03:00,79.4,71.6,30.15,NNW,340,0.0,2.0,77,0.00,,,0.00,Wunderground v.1.15,2013-07-17 06:03:00,
2013-07-17 02:08:00,79.4,71.6,30.14,NNW,340,0.0,2.0,77,0.00,,,0.00,Wunderground v.1.15,2013-07-17 06:08:00,
2013-07-17 02:13:00,79.4,71.6,30.14,NNW,340,0.0,1.0,77,0.00,,,0.00,Wunderground v.1.15,2013-07-17 06:13:00,
2013-07-17 02:18:00,79.4,71.6,30.14,NNW,340,0.0,1.0,77,0.00,,,0.00,Wunderground v.1.15,2013-07-17 06:18:00,
2013-07-17 02:23:00,79.6,71.4,30.14,NNW,340,0.0,1.0,76,0.00,,,0.00,Wunderground v.1.15,2013-07-17 06:23:00,
2013-07-17 02:28:00,79.7,71.1,30.14,NNW,340,0.0,1.0,75,0.00,,,0.00,Wunderground v.1.15,2013-07-17 06:28:00,
2013-07-17 02:33:00,79.9,71.3,30.14,NNW,340,0.0,0.0,75,0.00,,,0.00,Wunderground v.1.15,2013-07-17 06:33:00,
2013-07-17 02:38:00,79.9,71.3,30.14,NNW,340,0.0,0.0,75,0.00,,,0.00,Wunderground v.1.15,2013-07-17 06:38:00,
2013-07-17 02:43:00,79.8,71.2,30.14,NNW,340,0.0,0.0,75,0.00,,,0.00,Wunderground v.1.15,2013-07-17 06:43:00,
2013-07-17 02:48:00,79.9,71.3,30.14,NNW,340,0.0,0.0,75,0.00,,,0.00,Wunderground v.1.15,2013-07-17 06:48:00,
2013-07-17 02:53:00,79.6,71.0,30.14,NNW,340,0.0,0.0,75,0.00,,,0.00,Wunderground v.1.15,2013-07-17 06:53:00,
2013-07-17 02:58:00,79.5,71.3,30.14,NNW,340,0.0,0.0,76,0.00,,,0.00,Wunderground v.1.15,2013-07-17 06:58:00,
2013-07-17 03:03:00,79.4,71.2,30.14,NNW,340,0.0,0.0,76,0.00,,,0.00,Wunderground v.1.15,2013-07-17 07:03:00,
2013-07-17 03:08:00,79.8,71.2,30.14,NNW,340,0.0,0.0,75,0.00,,,0.00,Wunderground v.1.15,2013-07-17 07:08:00,
2013-07-17 03:13:00,80.2,71.6,30.14,NNW,340,0.0,0.0,75,0.00,,,0.00,Wunderground v.1.15,2013-07-17 07:13:00,
2013-07-17 03:18:00,80.5,71.4,30.14,NNW,340,0.0,0.0,74,0.00,,,0.00,Wunderground v.1.15,2013-07-17 07:18:00,
2013-07-17 03:23:00,80.2,71.9,30.15,NNW,340,0.0,0.0,76,0.00,,,0.00,Wunderground v.1.15,2013-07-17 07:23:00,
2013-07-17 03:28:00,79.5,71.7,30.15,NNW,340,0.0,0.0,77,0.00,,,0.00,Wunderground v.1.15,2013-07-17 07:28:00,
2013-07-17 03:33:00,79.5,71.7,30.15,NNW,340,2.0,3.0,77,0.00,,,0.00,Wunderground v.1.15,2013-07-17 07:33:00,
2013-07-17 03:38:00,79.9,71.7,30.15,WNW,294,2.0,6.0,76,0.00,,,0.00,Wunderground v.1.15,2013-07-17 07:38:00,
2013-07-17 03:43:00,80.2,71.9,30.15,NW,313,2.0,5.0,76,0.00,,,0.00,Wunderground v.1.15,2013-07-17 07:43:00,
2013-07-17 03:48:00,80.1,71.8,30.15,West,281,4.0,6.0,76,0.00,,,0.00,Wunderground v.1.15,2013-07-17 07:48:00,
2013-07-17 03:53:00,79.9,72.0,30.15,NW,306,2.0,5.0,77,0.00,,,0.00,Wunderground v.1.15,2013-07-17 07:53:00,
2013-07-17 03:58:00,79.8,71.9,30.15,NW,311,3.0,6.0,77,0.00,,,0.00,Wunderground v.1.15,2013-07-17 07:58:00,
2013-07-17 04:03:00,79.8,71.9,30.15,WNW,285,3.0,4.0,77,0.00,,,0.00,Wunderground v.1.15,2013-07-17 08:03:00,
2013-07-17 04:08:00,79.5,71.7,30.15,WNW,286,2.0,4.0,77,0.00,,,0.00,Wunderground v.1.15,2013-07-17 08:08:00,
2013-07-17 04:13:00,79.4,71.6,30.15,WNW,286,1.0,2.0,77,0.00,,,0.00,Wunderground v.1.15,2013-07-17 08:13:00,
2013-07-17 04:18:00,79.2,71.7,30.15,WNW,286,1.0,3.0,78,0.00,,,0.00,Wunderground v.1.15,2013-07-17 08:18:00,
2013-07-17 04:23:00,79.1,71.6,30.15,WNW,286,1.0,2.0,78,0.00,,,0.00,Wunderground v.1.15,2013-07-17 08:23:00,
2013-07-17 04:28:00,79.0,71.6,30.15,WNW,286,1.0,2.0,78,0.00,,,0.00,Wunderground v.1.15,2013-07-17 08:28:00,
2013-07-17 04:33:00,79.0,71.2,30.15,WNW,286,1.0,2.0,77,0.00,,,0.00,Wunderground v.1.15,2013-07-17 08:33:00,
2013-07-17 04:38:00,79.1,71.3,30.16,WNW,286,1.0,2.0,77,0.00,,,0.00,Wunderground v.1.15,2013-07-17 08:38:00,
2013-07-17 04:43:00,79.3,71.5,30.16,WNW,286,1.0,1.0,77,0.00,,,0.00,Wunderground v.1.15,2013-07-17 08:43:00,
2013-07-17 04:48:00,79.3,71.1,30.16,WNW,286,0.0,2.0,76,0.00,,,0.00,Wunderground v.1.15,2013-07-17 08:48:00,
2013-07-17 04:53:00,79.5,71.3,30.16,WNW,286,1.0,2.0,76,0.00,,,0.00,Wunderground v.1.15,2013-07-17 08:53:00,
2013-07-17 04:58:00,79.6,71.0,30.16,WNW,286,1.0,2.0,75,0.00,,,0.00,Wunderground v.1.15,2013-07-17 08:58:00,
2013-07-17 05:03:00,79.6,71.4,30.16,WNW,286,2.0,3.0,76,0.00,,,0.00,Wunderground v.1.15,2013-07-17 09:03:00,
2013-07-17 05:09:00,79.6,71.0,30.16,WNW,294,3.0,4.0,75,0.00,,,0.00,Wunderground v.1.15,2013-07-17 09:09:00,
2013-07-17 05:14:00,79.7,71.1,30.16,West,281,2.0,5.0,75,0.00,,,0.00,Wunderground v.1.15,2013-07-17 09:14:00,
2013-07-17 05:19:00,79.7,71.1,30.16,West,281,2.0,5.0,75,0.00,,,0.00,Wunderground v.1.15,2013-07-17 09:19:00,
2013-07-17 05:24:00,79.7,71.1,30.16,West,281,1.0,4.0,75,0.00,,,0.00,Wunderground v.1.15,2013-07-17 09:24:00,
2013-07-17 05:29:00,79.3,71.1,30.17,West,281,1.0,4.0,76,0.00,,,0.00,Wunderground v.1.15,2013-07-17 09:29:00,
2013-07-17 05:34:00,79.0,71.2,30.17,West,281,0.0,1.0,77,0.00,,,0.00,Wunderground v.1.15,2013-07-17 09:34:00,
2013-07-17 05:39:00,78.9,71.1,30.17,West,281,2.0,2.0,77,0.00,,,0.00,Wunderground v.1.15,2013-07-17 09:39:00,
2013-07-17 05:44:00,78.7,70.9,30.17,West,281,2.0,3.0,77,0.00,,,0.00,Wunderground v.1.15,2013-07-17 09:44:00,
2013-07-17 05:49:00,78.6,71.2,30.17,West,281,2.0,3.0,78,0.00,,,0.00,Wunderground v.1.15,2013-07-17 09:49:00,
2013-07-17 05:54:00,78.4,71.0,30.17,WNW,287,2.0,3.0,78,0.00,,,0.00,Wunderground v.1.15,2013-07-17 09:54:00,
2013-07-17 05:59:00,78.5,71.1,30.17,WNW,287,2.0,4.0,78,0.00,,,0.00,Wunderground v.1.15,2013-07-17 09:59:00,
2013-07-17 06:04:00,78.5,71.1,30.17,WNW,287,2.0,3.0,78,0.00,,,0.00,Wunderground v.1.15,2013-07-17 10:04:00,
2013-07-17 06:09:00,78.4,71.0,30.17,WNW,287,2.0,3.0,78,0.00,,,0.00,Wunderground v.1.15,2013-07-17 10:09:00,
2013-07-17 06:14:00,78.2,71.2,30.17,WNW,287,2.0,3.0,79,0.00,,,0.00,Wunderground v.1.15,2013-07-17 10:14:00,
2013-07-17 06:19:00,78.2,71.2,30.17,WNW,287,1.0,3.0,79,0.00,,,0.00,Wunderground v.1.15,2013-07-17 10:19:00,
2013-07-17 06:24:00,78.2,71.5,30.17,WNW,287,0.0,2.0,80,0.00,,,0.00,Wunderground v.1.15,2013-07-17 10:24:00,
2013-07-17 06:29:00,78.2,71.2,30.17,WNW,287,1.0,2.0,79,0.00,,,0.00,Wunderground v.1.15,2013-07-17 10:29:00,
2013-07-17 06:34:00,78.3,71.6,30.18,WNW,287,0.0,1.0,80,0.00,,,0.00,Wunderground v.1.15,2013-07-17 10:34:00,
2013-07-17 06:39:00,78.0,71.7,30.17,WNW,287,0.0,2.0,81,0.00,,,0.00,Wunderground v.1.15,2013-07-17 10:39:00,
2013-07-17 06:44:00,78.1,71.8,30.17,WNW,287,2.0,3.0,81,0.00,,,0.00,Wunderground v.1.15,2013-07-17 10:44:00,
2013-07-17 06:49:00,78.4,72.1,30.18,WNW,287,1.0,3.0,81,0.00,,,0.00,Wunderground v.1.15,2013-07-17 10:49:00,
2013-07-17 06:54:00,78.6,71.9,30.17,WNW,287,0.0,3.0,80,0.00,,,0.00,Wunderground v.1.15,2013-07-17 10:54:00,
2013-07-17 06:59:00,79.0,72.7,30.18,WNW,287,1.0,3.0,81,0.00,,,0.00,Wunderground v.1.15,2013-07-17 10:59:00,
2013-07-17 07:04:00,79.2,72.5,30.18,WNW,287,2.0,2.0,80,0.00,,,0.00,Wunderground v.1.15,2013-07-17 11:04:00,
2013-07-17 07:09:00,79.5,72.4,30.18,WNW,287,1.0,3.0,79,0.00,,,0.00,Wunderground v.1.15,2013-07-17 11:09:00,
2013-07-17 07:14:00,79.9,72.8,30.18,WNW,287,3.0,3.0,79,0.00,,,0.00,Wunderground v.1.15,2013-07-17 11:14:00,
2013-07-17 07:19:00,80.1,72.6,30.18,WNW,290,1.0,4.0,78,0.00,,,0.00,Wunderground v.1.15,2013-07-17 11:19:00,
2013-07-17 07:24:00,80.1,72.6,30.18,West,278,3.0,5.0,78,0.00,,,0.00,Wunderground v.1.15,2013-07-17 11:24:00,
2013-07-17 07:29:00,80.3,72.8,30.18,WNW,291,3.0,5.0,78,0.00,,,0.00,Wunderground v.1.15,2013-07-17 11:29:00,
2013-07-17 07:34:00,80.6,73.5,30.18,West,271,3.0,4.0,79,0.00,,,0.00,Wunderground v.1.15,2013-07-17 11:34:00,
2013-07-17 07:39:00,81.0,73.5,30.18,WNW,299,2.0,4.0,78,0.00,,,0.00,Wunderground v.1.15,2013-07-17 11:39:00,
2013-07-17 07:44:00,81.2,73.3,30.18,West,275,1.0,4.0,77,0.00,,,0.00,Wunderground v.1.15,2013-07-17 11:44:00,
2013-07-17 07:49:00,81.6,73.7,30.18,WNW,282,3.0,5.0,77,0.00,,,0.00,Wunderground v.1.15,2013-07-17 11:49:00,
2013-07-17 07:54:00,81.3,73.8,30.18,WNW,298,3.0,5.0,78,0.00,,,0.00,Wunderground v.1.15,2013-07-17 11:54:00,
2013-07-17 07:59:00,81.6,73.7,30.18,WNW,288,2.0,5.0,77,0.00,,,0.00,Wunderground v.1.15,2013-07-17 11:59:00,
2013-07-17 08:05:00,82.0,74.1,30.18,WNW,298,4.0,4.0,77,0.00,,,0.00,Wunderground v.1.15,2013-07-17 12:05:00,
2013-07-17 08:10:00,81.7,73.8,30.18,WNW,284,3.0,4.0,77,0.00,,,0.00,Wunderground v.1.15,2013-07-17 12:10:00,
2013-07-17 08:15:00,81.9,74.0,30.18,WNW,292,1.0,4.0,77,0.00,,,0.00,Wunderground v.1.15,2013-07-17 12:15:00,
2013-07-17 08:20:00,82.0,74.1,30.18,West,278,3.0,3.0,77,0.00,,,0.00,Wunderground v.1.15,2013-07-17 12:20:00,
2013-07-17 08:25:00,82.3,74.4,30.18,West,281,3.0,4.0,77,0.00,,,0.00,Wunderground v.1.15,2013-07-17 12:25:00,
2013-07-17 08:30:00,82.7,74.4,30.18,WNW,292,0.0,2.0,76,0.00,,,0.00,Wunderground v.1.15,2013-07-17 12:30:00,
2013-07-17 08:35:00,82.4,74.1,30.18,WNW,291,2.0,4.0,76,0.00,,,0.00,Wunderground v.1.15,2013-07-17 12:35:00,
2013-07-17 08:40:00,82.4,74.5,30.18,NW,309,3.0,3.0,77,0.00,,,0.00,Wunderground v.1.15,2013-07-17 12:40:00,
2013-07-17 08:45:00,82.7,74.8,30.18,WNW,303,4.0,5.0,77,0.00,,,0.00,Wunderground v.1.15,2013-07-17 12:45:00,
2013-07-17 08:50:00,82.8,74.1,30.18,WNW,289,2.0,3.0,75,0.00,,,0.00,Wunderground v.1.15,2013-07-17 12:50:00,
2013-07-17 08:55:00,82.3,74.0,30.18,WNW,290,3.0,5.0,76,0.00,,,0.00,Wunderground v.1.15,2013-07-17 12:55:00,
2013-07-17 09:00:00,81.8,74.6,30.18,West,279,4.0,4.0,79,0.00,,,0.00,Wunderground v.1.15,2013-07-17 13:00:00,
2013-07-17 09:05:00,82.1,75.3,30.18,WNW,289,2.0,4.0,80,0.00,,,0.00,Wunderground v.1.15,2013-07-17 13:05:00,
2013-07-17 09:10:00,83.5,76.3,30.18,West,280,1.0,2.0,79,0.00,,,0.00,Wunderground v.1.15,2013-07-17 13:10:00,
2013-07-17 09:15:00,84.1,75.7,30.18,NW,306,2.0,6.0,76,0.00,,,0.00,Wunderground v.1.15,2013-07-17 13:15:00,
2013-07-17 09:20:00,84.5,76.5,30.18,WNW,284,1.0,3.0,77,0.00,,,0.00,Wunderground v.1.15,2013-07-17 13:20:00,
2013-07-17 09:25:00,84.8,75.6,30.18,West,274,1.0,6.0,74,0.00,,,0.00,Wunderground v.1.15,2013-07-17 13:25:00,
2013-07-17 09:30:00,85.1,76.3,30.19,West,276,3.0,3.0,75,0.00,,,0.00,Wunderground v.1.15,2013-07-17 13:30:00,
2013-07-17 09:35:00,85.1,75.9,30.19,West,274,0.0,4.0,74,0.00,,,0.00,Wunderground v.1.15,2013-07-17 13:35:00,
2013-07-17 09:40:00,85.7,77.3,30.18,West,280,5.0,5.0,76,0.00,,,0.00,Wunderground v.1.15,2013-07-17 13:40:00,
2013-07-17 09:45:00,85.6,76.4,30.19,West,269,3.0,5.0,74,0.00,,,0.00,Wunderground v.1.15,2013-07-17 13:45:00,
2013-07-17 09:50:00,86.7,77.0,30.19,West,277,5.0,5.0,73,0.00,,,0.00,Wunderground v.1.15,2013-07-17 13:50:00,
2013-07-17 09:55:00,86.6,76.5,30.19,WNW,284,2.0,6.0,72,0.00,,,0.00,Wunderground v.1.15,2013-07-17 13:55:00,
2013-07-17 10:00:00,87.1,77.0,30.19,West,279,2.0,4.0,72,0.00,,,0.00,Wunderground v.1.15,2013-07-17 14:00:00,
2013-07-17 10:05:00,86.6,76.5,30.18,West,275,2.0,6.0,72,0.00,,,0.00,Wunderground v.1.15,2013-07-17 14:05:00,
2013-07-17 10:10:00,86.5,77.2,30.18,WNW,299,3.0,4.0,74,0.00,,,0.00,Wunderground v.1.15,2013-07-17 14:10:00,
2013-07-17 10:15:00,87.0,76.5,30.18,NW,304,1.0,4.0,71,0.00,,,0.00,Wunderground v.1.15,2013-07-17 14:15:00,
2013-07-17 10:20:00,87.0,76.9,30.18,West,270,0.0,2.0,72,0.00,,,0.00,Wunderground v.1.15,2013-07-17 14:20:00,
2013-07-17 10:25:00,86.9,76.4,30.18,NW,321,1.0,3.0,71,0.00,,,0.00,Wunderground v.1.15,2013-07-17 14:25:00,
2013-07-17 10:30:00,87.2,74.9,30.18,SE,125,0.0,1.0,67,0.00,,,0.00,Wunderground v.1.15,2013-07-17 14:30:00,
2013-07-17 10:35:00,87.4,75.1,30.18,WSW,254,1.0,3.0,67,0.00,,,0.00,Wunderground v.1.15,2013-07-17 14:35:00,
2013-07-17 10:40:00,87.7,75.8,30.18,NNW,335,1.0,2.0,68,0.00,,,0.00,Wunderground v.1.15,2013-07-17 14:40:00,
2013-07-17 10:41:00,87.7,75.8,30.18,NNW,335,1.0,2.0,68,0.00,,,0.00,Wunderground v.1.15,2013-07-17 14:41:00,
2013-07-17 10:46:00,87.7,76.3,30.18,SSE,157,0.0,5.0,69,0.00,,,0.00,Wunderground v.1.15,2013-07-17 14:46:00,
2013-07-17 10:51:00,88.1,77.1,30.18,NNW,330,0.0,2.0,70,0.00,,,0.00,Wunderground v.1.15,2013-07-17 14:51:00,
2013-07-17 10:56:00,88.3,76.4,30.18,NNW,335,2.0,4.0,68,0.00,,,0.00,Wunderground v.1.15,2013-07-17 14:56:00,
2013-07-17 11:01:00,87.9,75.6,30.18,NNW,340,1.0,2.0,67,0.00,,,0.00,Wunderground v.1.15,2013-07-17 15:01:00,
2013-07-17 11:06:00,88.4,75.6,30.18,East,84,0.0,5.0,66,0.00,,,0.00,Wunderground v.1.15,2013-07-17 15:06:00,
2013-07-17 11:11:00,88.3,75.0,30.18,NW,307,1.0,3.0,65,0.00,,,0.00,Wunderground v.1.15,2013-07-17 15:11:00,
2013-07-17 11:16:00,89.1,76.7,30.17,WNW,296,0.0,3.0,67,0.00,,,0.00,Wunderground v.1.15,2013-07-17 15:16:00,
2013-07-17 11:21:00,89.2,77.7,30.17,West,277,0.0,3.0,69,0.00,,,0.00,Wunderground v.1.15,2013-07-17 15:21:00,
2013-07-17 11:26:00,89.4,77.0,30.17,West,264,4.0,5.0,67,0.00,,,0.00,Wunderground v.1.15,2013-07-17 15:26:00,
2013-07-17 11:31:00,88.3,77.7,30.18,NNE,15,1.0,2.0,71,0.00,,,0.00,Wunderground v.1.15,2013-07-17 15:31:00,
2013-07-17 11:36:00,88.1,76.6,30.18,NNE,15,0.0,2.0,69,0.00,,,0.00,Wunderground v.1.15,2013-07-17 15:36:00,
2013-07-17 11:41:00,87.9,76.9,30.18,NNW,340,0.0,3.0,70,0.00,,,0.00,Wunderground v.1.15,2013-07-17 15:41:00,
2013-07-17 11:46:00,87.7,75.8,30.18,WNW,298,2.0,3.0,68,0.00,,,0.00,Wunderground v.1.15,2013-07-17 15:46:00,
2013-07-17 11:52:00,88.6,78.0,30.18,NE,51,1.0,3.0,71,0.00,,,0.00,Wunderground v.1.15,2013-07-17 15:52:00,
2013-07-17 11:57:00,89.9,80.5,30.17,West,270,3.0,4.0,74,0.00,,,0.00,Wunderground v.1.15,2013-07-17 15:57:00,
2013-07-17 12:02:00,89.3,77.3,30.17,West,279,0.0,5.0,68,0.00,,,0.00,Wunderground v.1.15,2013-07-17 16:02:00,
2013-07-17 12:07:00,90.1,75.3,30.17,NW,311,1.0,5.0,62,0.00,,,0.00,Wunderground v.1.15,2013-07-17 16:07:00,
2013-07-17 12:12:00,89.6,77.2,30.17,North,6,1.0,2.0,67,0.00,,,0.00,Wunderground v.1.15,2013-07-17 16:12:00,
2013-07-17 12:17:00,90.0,73.7,30.17,North,354,2.0,4.0,59,0.00,,,0.00,Wunderground v.1.15,2013-07-17 16:17:00,
2013-07-17 12:22:00,89.5,76.2,30.17,West,272,0.0,3.0,65,0.00,,,0.00,Wunderground v.1.15,2013-07-17 16:22:00,
2013-07-17 12:27:00,90.0,71.7,30.17,ENE,69,1.0,8.0,55,0.00,,,0.00,Wunderground v.1.15,2013-07-17 16:27:00,
2013-07-17 12:32:00,90.4,75.1,30.17,WSW,256,3.0,3.0,61,0.00,,,0.00,Wunderground v.1.15,2013-07-17 16:32:00,
2013-07-17 12:37:00,91.3,72.9,30.17,WNW,299,3.0,4.0,55,0.00,,,0.00,Wunderground v.1.15,2013-07-17 16:37:00,
2013-07-17 12:42:00,92.1,75.2,30.17,West,268,2.0,4.0,58,0.00,,,0.00,Wunderground v.1.15,2013-07-17 16:42:00,
2013-07-17 12:47:00,91.4,75.1,30.17,West,274,1.0,4.0,59,0.00,,,0.00,Wunderground v.1.15,2013-07-17 16:47:00,
2013-07-17 12:52:00,90.7,71.2,30.16,West,273,2.0,4.0,53,0.00,,,0.00,Wunderground v.1.15,2013-07-17 16:52:00,
2013-07-17 12:57:00,91.3,71.2,30.16,West,271,0.0,4.0,52,0.00,,,0.00,Wunderground v.1.15,2013-07-17 16:57:00,
2013-07-17 13:02:00,91.0,71.5,30.16,NE,44,8.0,8.0,53,0.00,,,0.00,Wunderground v.1.15,2013-07-17 17:02:00,
2013-07-17 13:07:00,91.1,72.7,30.16,East,86,5.0,8.0,55,0.00,,,0.00,Wunderground v.1.15,2013-07-17 17:07:00,
2013-07-17 13:12:00,90.5,71.0,30.16,ENE,71,3.0,5.0,53,0.00,,,0.00,Wunderground v.1.15,2013-07-17 17:12:00,
2013-07-17 13:17:00,90.7,72.3,30.16,ENE,71,0.0,5.0,55,0.00,,,0.00,Wunderground v.1.15,2013-07-17 17:17:00,
2013-07-17 13:22:00,91.9,74.0,30.16,South,184,1.0,2.0,56,0.00,,,0.00,Wunderground v.1.15,2013-07-17 17:22:00,
2013-07-17 13:27:00,92.0,75.1,30.16,WNW,300,1.0,3.0,58,0.00,,,0.00,Wunderground v.1.15,2013-07-17 17:27:00,
2013-07-17 13:32:00,92.7,76.3,30.15,WNW,284,3.0,5.0,59,0.00,,,0.00,Wunderground v.1.15,2013-07-17 17:32:00,
2013-07-17 13:37:00,92.3,77.4,30.15,WNW,297,1.0,5.0,62,0.00,,,0.00,Wunderground v.1.15,2013-07-17 17:37:00,
2013-07-17 13:42:00,92.8,75.3,30.15,West,272,3.0,7.0,57,0.00,,,0.00,Wunderground v.1.15,2013-07-17 17:42:00,
2013-07-17 13:48:00,91.8,71.7,30.15,West,274,1.0,7.0,52,0.00,,,0.00,Wunderground v.1.15,2013-07-17 17:48:00,
2013-07-17 13:53:00,92.4,77.5,30.15,West,271,2.0,7.0,62,0.00,,,0.00,Wunderground v.1.15,2013-07-17 17:53:00,
2013-07-17 13:58:00,91.6,73.1,30.14,East,100,0.0,7.0,55,0.00,,,0.00,Wunderground v.1.15,2013-07-17 17:58:00,
2013-07-17 14:03:00,92.5,76.1,30.14,East,81,0.0,2.0,59,0.00,,,0.00,Wunderground v.1.15,2013-07-17 18:03:00,
2013-07-17 14:08:00,92.5,75.6,30.14,WSW,250,2.0,3.0,58,0.00,,,0.00,Wunderground v.1.15,2013-07-17 18:08:00,
2013-07-17 14:13:00,92.4,75.0,30.14,NNW,344,1.0,3.0,57,0.00,,,0.00,Wunderground v.1.15,2013-07-17 18:13:00,
2013-07-17 14:18:00,91.7,73.2,30.13,ENE,59,5.0,5.0,55,0.00,,,0.00,Wunderground v.1.15,2013-07-17 18:18:00,
2013-07-17 14:23:00,91.6,73.1,30.13,ENE,66,0.0,8.0,55,0.00,,,0.00,Wunderground v.1.15,2013-07-17 18:23:00,
2013-07-17 14:28:00,92.5,72.9,30.13,NW,306,1.0,8.0,53,0.00,,,0.00,Wunderground v.1.15,2013-07-17 18:28:00,
2013-07-17 14:33:00,92.1,72.5,30.13,NE,49,2.0,3.0,53,0.00,,,0.00,Wunderground v.1.15,2013-07-17 18:33:00,
2013-07-17 14:38:00,92.1,73.1,30.12,NW,309,0.0,7.0,54,0.00,,,0.00,Wunderground v.1.15,2013-07-17 18:38:00,
2013-07-17 14:43:00,91.9,72.9,30.13,East,95,1.0,2.0,54,0.00,,,0.00,Wunderground v.1.15,2013-07-17 18:43:00,
2013-07-17 14:48:00,92.7,75.2,30.13,WNW,302,2.0,4.0,57,0.00,,,0.00,Wunderground v.1.15,2013-07-17 18:48:00,
2013-07-17 14:53:00,92.3,72.1,30.12,SW,227,2.0,5.0,52,0.00,,,0.00,Wunderground v.1.15,2013-07-17 18:53:00,
2013-07-17 14:58:00,92.4,75.5,30.12,NNW,344,1.0,5.0,58,0.00,,,0.00,Wunderground v.1.15,2013-07-17 18:58:00,
2013-07-17 15:03:00,92.5,74.5,30.12,East,89,4.0,5.0,56,0.00,,,0.00,Wunderground v.1.15,2013-07-17 19:03:00,
2013-07-17 15:08:00,93.1,76.6,30.12,West,278,3.0,5.0,59,0.00,,,0.00,Wunderground v.1.15,2013-07-17 19:08:00,
2013-07-17 15:13:00,92.7,74.7,30.12,WNW,288,1.0,4.0,56,0.00,,,0.00,Wunderground v.1.15,2013-07-17 19:13:00,
2013-07-17 15:18:00,92.3,76.9,30.11,ESE,123,2.0,7.0,61,0.00,,,0.00,Wunderground v.1.15,2013-07-17 19:18:00,
2013-07-17 15:23:00,91.9,75.0,30.11,West,271,2.0,4.0,58,0.00,,,0.00,Wunderground v.1.15,2013-07-17 19:23:00,
2013-07-17 15:28:00,91.0,73.1,30.11,NNW,330,1.0,4.0,56,0.00,,,0.00,Wunderground v.1.15,2013-07-17 19:28:00,
2013-07-17 15:33:00,90.9,74.1,30.11,NNW,330,1.0,3.0,58,0.00,,,0.00,Wunderground v.1.15,2013-07-17 19:33:00,
2013-07-17 15:38:00,89.5,72.8,30.11,East,88,4.0,4.0,58,0.00,,,0.00,Wunderground v.1.15,2013-07-17 19:38:00,
2013-07-17 15:43:00,90.5,75.7,30.11,West,279,1.0,4.0,62,0.00,,,0.00,Wunderground v.1.15,2013-07-17 19:43:00,
2013-07-17 15:49:00,91.0,74.7,30.11,North,359,0.0,4.0,59,0.00,,,0.00,Wunderground v.1.15,2013-07-17 19:49:00,
2013-07-17 15:54:00,89.7,77.3,30.10,NNW,340,2.0,3.0,67,0.00,,,0.00,Wunderground v.1.15,2013-07-17 19:54:00,
2013-07-17 15:59:00,90.7,75.9,30.10,WNW,286,3.0,4.0,62,0.00,,,0.00,Wunderground v.1.15,2013-07-17 19:59:00,
2013-07-17 16:04:00,90.2,73.4,30.10,NNE,33,1.0,3.0,58,0.00,,,0.00,Wunderground v.1.15,2013-07-17 20:04:00,
2013-07-17 16:09:00,89.5,75.7,30.10,WNW,296,3.0,7.0,64,0.00,,,0.00,Wunderground v.1.15,2013-07-17 20:09:00,
2013-07-17 16:14:00,91.0,76.2,30.10,WNW,293,4.0,5.0,62,0.00,,,0.00,Wunderground v.1.15,2013-07-17 20:14:00,
2013-07-17 16:19:00,91.4,73.0,30.10,West,271,1.0,5.0,55,0.00,,,0.00,Wunderground v.1.15,2013-07-17 20:19:00,
2013-07-17 16:24:00,90.8,73.5,30.10,WNW,284,2.0,3.0,57,0.00,,,0.00,Wunderground v.1.15,2013-07-17 20:24:00,
2013-07-17 16:29:00,89.2,73.5,30.10,West,281,2.0,4.0,60,0.00,,,0.00,Wunderground v.1.15,2013-07-17 20:29:00,
2013-07-17 16:34:00,89.8,74.1,30.10,NW,316,1.0,3.0,60,0.00,,,0.00,Wunderground v.1.15,2013-07-17 20:34:00,
2013-07-17 16:39:00,90.7,73.4,30.09,NW,311,0.0,3.0,57,0.00,,,0.00,Wunderground v.1.15,2013-07-17 20:39:00,
2013-07-17 16:44:00,91.1,74.3,30.09,ESE,111,1.0,4.0,58,0.00,,,0.00,Wunderground v.1.15,2013-07-17 20:44:00,
2013-07-17 16:49:00,91.3,75.0,30.09,West,267,2.0,5.0,59,0.00,,,0.00,Wunderground v.1.15,2013-07-17 20:49:00,
2013-07-17 16:54:00,90.9,74.1,30.09,NNW,340,1.0,3.0,58,0.00,,,0.00,Wunderground v.1.15,2013-07-17 20:54:00,
2013-07-17 16:59:00,90.0,74.2,30.09,WNW,298,1.0,5.0,60,0.00,,,0.00,Wunderground v.1.15,2013-07-17 20:59:00,
2013-07-17 17:04:00,90.8,76.0,30.09,NW,308,1.0,4.0,62,0.00,,,0.00,Wunderground v.1.15,2013-07-17 21:04:00,
2013-07-17 17:09:00,91.2,74.9,30.09,West,279,5.0,5.0,59,0.00,,,0.00,Wunderground v.1.15,2013-07-17 21:09:00,
2013-07-17 17:14:00,91.4,75.6,30.09,West,280,2.0,5.0,60,0.00,,,0.00,Wunderground v.1.15,2013-07-17 21:14:00,
2013-07-17 17:19:00,91.5,74.6,30.09,NNW,340,2.0,5.0,58,0.00,,,0.00,Wunderground v.1.15,2013-07-17 21:19:00,
2013-07-17 17:24:00,91.2,74.4,30.09,NNW,344,2.0,3.0,58,0.00,,,0.00,Wunderground v.1.15,2013-07-17 21:24:00,
2013-07-17 17:29:00,91.0,74.2,30.09,East,95,2.0,3.0,58,0.00,,,0.00,Wunderground v.1.15,2013-07-17 21:29:00,
2013-07-17 17:34:00,90.8,72.4,30.08,North,6,0.0,4.0,55,0.00,,,0.00,Wunderground v.1.15,2013-07-17 21:34:00,
2013-07-17 17:39:00,90.8,74.0,30.08,West,266,0.0,5.0,58,0.00,,,0.00,Wunderground v.1.15,2013-07-17 21:39:00,
2013-07-17 17:44:00,90.9,73.6,30.08,West,266,2.0,3.0,57,0.00,,,0.00,Wunderground v.1.15,2013-07-17 21:44:00,
2013-07-17 17:49:00,90.9,74.1,30.08,WNW,283,1.0,3.0,58,0.00,,,0.00,Wunderground v.1.15,2013-07-17 21:49:00,
2013-07-17 17:54:00,90.9,73.0,30.08,South,175,0.0,3.0,56,0.00,,,0.00,Wunderground v.1.15,2013-07-17 21:54:00,
2013-07-17 17:59:00,90.7,73.4,30.08,WNW,296,1.0,3.0,57,0.00,,,0.00,Wunderground v.1.15,2013-07-17 21:59:00,
2013-07-17 18:04:00,90.4,72.0,30.08,NW,324,2.0,3.0,55,0.00,,,0.00,Wunderground v.1.15,2013-07-17 22:04:00,
2013-07-17 18:10:00,90.2,72.4,30.08,NW,310,1.0,2.0,56,0.00,,,0.00,Wunderground v.1.15,2013-07-17 22:10:00,
2013-07-17 18:15:00,90.0,72.7,30.08,NW,309,1.0,3.0,57,0.00,,,0.00,Wunderground v.1.15,2013-07-17 22:15:00,
2013-07-17 18:20:00,89.9,73.1,30.08,NW,308,0.0,1.0,58,0.00,,,0.00,Wunderground v.1.15,2013-07-17 22:20:00,
2013-07-17 18:25:00,89.9,71.0,30.07,WSW,243,1.0,3.0,54,0.00,,,0.00,Wunderground v.1.15,2013-07-17 22:25:00,
2013-07-17 18:30:00,89.7,70.3,30.07,WSW,243,0.0,1.0,53,0.00,,,0.00,Wunderground v.1.15,2013-07-17 22:30:00,
2013-07-17 18:35:00,89.1,72.4,30.07,WNW,298,1.0,2.0,58,0.00,,,0.00,Wunderground v.1.15,2013-07-17 22:35:00,
2013-07-17 18:40:00,89.2,71.5,30.07,WNW,288,0.0,0.0,56,0.00,,,0.00,Wunderground v.1.15,2013-07-17 22:40:00,
2013-07-17 18:45:00,89.1,71.4,30.07,NE,56,0.0,2.0,56,0.00,,,0.00,Wunderground v.1.15,2013-07-17 22:45:00,
2013-07-17 18:50:00,88.6,71.9,30.07,ENE,57,0.0,0.0,58,0.00,,,0.00,Wunderground v.1.15,2013-07-17 22:50:00,
2013-07-17 18:55:00,88.3,72.2,30.07,NE,53,0.0,1.0,59,0.00,,,0.00,Wunderground v.1.15,2013-07-17 22:55:00,
2013-07-17 19:00:00,88.1,71.5,30.07,NE,53,0.0,1.0,58,0.00,,,0.00,Wunderground v.1.15,2013-07-17 23:00:00,
2013-07-17 19:05:00,88.2,72.1,30.07,NE,53,0.0,1.0,59,0.00,,,0.00,Wunderground v.1.15,2013-07-17 23:05:00,
2013-07-17 19:10:00,87.9,72.8,30.06,NE,53,0.0,0.0,61,0.00,,,0.00,Wunderground v.1.15,2013-07-17 23:10:00,
2013-07-17 19:15:00,87.8,72.2,30.06,NE,53,0.0,0.0,60,0.00,,,0.00,Wunderground v.1.15,2013-07-17 23:15:00,
2013-07-17 19:20:00,87.7,71.6,30.06,NE,53,1.0,1.0,59,0.00,,,0.00,Wunderground v.1.15,2013-07-17 23:20:00,
2013-07-17 19:25:00,87.4,71.3,30.07,NE,53,1.0,1.0,59,0.00,,,0.00,Wunderground v.1.15,2013-07-17 23:25:00,
2013-07-17 19:30:00,87.4,71.8,30.07,NE,53,3.0,3.0,60,0.00,,,0.00,Wunderground v.1.15,2013-07-17 23:30:00,
2013-07-17 19:35:00,87.3,72.2,30.07,NE,54,0.0,3.0,61,0.00,,,0.00,Wunderground v.1.15,2013-07-17 23:35:00,
2013-07-17 19:40:00,87.1,73.4,30.07,NE,53,0.0,1.0,64,0.00,,,0.00,Wunderground v.1.15,2013-07-17 23:40:00,
2013-07-17 19:45:00,86.8,74.1,30.07,NE,54,1.0,3.0,66,0.00,,,0.00,Wunderground v.1.15,2013-07-17 23:45:00,
2013-07-17 19:50:00,86.7,74.0,30.07,NE,54,0.0,0.0,66,0.00,,,0.00,Wunderground v.1.15,2013-07-17 23:50:00,
2013-07-17 19:55:00,86.3,74.0,30.08,NE,55,0.0,2.0,67,0.00,,,0.00,Wunderground v.1.15,2013-07-17 23:55:00,
2013-07-17 20:00:00,85.9,74.1,30.08,NE,55,0.0,0.0,68,0.00,,,0.00,Wunderground v.1.15,2013-07-18 00:00:00,
2013-07-17 20:05:00,85.7,74.4,30.07,NE,53,0.0,1.0,69,0.00,,,0.00,Wunderground v.1.15,2013-07-18 00:05:00,
2013-07-17 20:11:00,85.5,74.2,30.07,NE,54,0.0,0.0,69,0.00,,,0.00,Wunderground v.1.15,2013-07-18 00:11:00,
2013-07-17 20:16:00,85.2,74.3,30.07,NE,54,0.0,0.0,70,0.00,,,0.00,Wunderground v.1.15,2013-07-18 00:16:00,
2013-07-17 20:21:00,84.8,74.3,30.08,NE,53,0.0,0.0,71,0.00,,,0.00,Wunderground v.1.15,2013-07-18 00:21:00,
2013-07-17 20:26:00,84.6,74.6,30.07,NE,53,0.0,0.0,72,0.00,,,0.00,Wunderground v.1.15,2013-07-18 00:26:00,
2013-07-17 20:31:00,84.5,74.5,30.08,NE,53,0.0,1.0,72,0.00,,,0.00,Wunderground v.1.15,2013-07-18 00:31:00,
2013-07-17 20:36:00,84.2,74.2,30.08,NE,53,0.0,1.0,72,0.00,,,0.00,Wunderground v.1.15,2013-07-18 00:36:00,
2013-07-17 20:41:00,83.8,74.2,30.08,NE,53,0.0,0.0,73,0.00,,,0.00,Wunderground v.1.15,2013-07-18 00:41:00,
2013-07-17 20:46:00,83.8,74.2,30.08,NE,53,0.0,0.0,73,0.00,,,0.00,Wunderground v.1.15,2013-07-18 00:46:00,
2013-07-17 20:51:00,83.8,74.2,30.08,NE,53,0.0,0.0,73,0.00,,,0.00,Wunderground v.1.15,2013-07-18 00:51:00,
2013-07-17 20:56:00,83.6,74.4,30.08,NE,54,0.0,0.0,74,0.00,,,0.00,Wunderground v.1.15,2013-07-18 00:56:00,
2013-07-17 21:01:00,83.4,74.2,30.08,NE,53,0.0,0.0,74,0.00,,,0.00,Wunderground v.1.15,2013-07-18 01:01:00,
2013-07-17 21:06:00,83.3,74.1,30.08,NE,53,0.0,0.0,74,0.00,,,0.00,Wunderground v.1.15,2013-07-18 01:06:00,
2013-07-17 21:11:00,83.3,74.5,30.08,NE,53,0.0,0.0,75,0.00,,,0.00,Wunderground v.1.15,2013-07-18 01:11:00,
2013-07-17 21:16:00,83.1,74.4,30.08,NE,54,0.0,0.0,75,0.00,,,0.00,Wunderground v.1.15,2013-07-18 01:16:00,
2013-07-17 21:21:00,82.9,74.2,30.08,NE,54,0.0,0.0,75,0.00,,,0.00,Wunderground v.1.15,2013-07-18 01:21:00,
2013-07-17 21:26:00,82.8,74.1,30.08,NE,53,0.0,0.0,75,0.00,,,0.00,Wunderground v.1.15,2013-07-18 01:26:00,
2013-07-17 21:31:00,82.9,74.2,30.08,NE,53,0.0,0.0,75,0.00,,,0.00,Wunderground v.1.15,2013-07-18 01:31:00,
2013-07-17 21:36:00,82.6,74.3,30.08,NE,54,0.0,0.0,76,0.00,,,0.00,Wunderground v.1.15,2013-07-18 01:36:00,
2013-07-17 21:41:00,82.2,74.3,30.08,NE,54,0.0,0.0,77,0.00,,,0.00,Wunderground v.1.15,2013-07-18 01:41:00,
2013-07-17 21:46:00,81.7,74.2,30.08,NE,53,0.0,0.0,78,0.00,,,0.00,Wunderground v.1.15,2013-07-18 01:46:00,
2013-07-17 21:51:00,81.7,74.2,30.08,NE,54,0.0,0.0,78,0.00,,,0.00,Wunderground v.1.15,2013-07-18 01:51:00,
2013-07-17 21:56:00,81.8,74.3,30.09,NE,54,0.0,0.0,78,0.00,,,0.00,Wunderground v.1.15,2013-07-18 01:56:00,
2013-07-17 22:01:00,81.8,74.3,30.09,NE,54,0.0,0.0,78,0.00,,,0.00,Wunderground v.1.15,2013-07-18 02:01:00,
2013-07-17 22:06:00,81.8,74.3,30.09,NE,54,0.0,0.0,78,0.00,,,0.00,Wunderground v.1.15,2013-07-18 02:06:00,
2013-07-17 22:11:00,81.6,74.1,30.09,NE,54,0.0,0.0,78,0.00,,,0.00,Wunderground v.1.15,2013-07-18 02:11:00,
2013-07-17 22:16:00,81.4,74.3,30.09,NE,54,0.0,0.0,79,0.00,,,0.00,Wunderground v.1.15,2013-07-18 02:16:00,
2013-07-17 22:21:00,81.1,74.3,30.09,NE,54,0.0,0.0,80,0.00,,,0.00,Wunderground v.1.15,2013-07-18 02:21:00,
2013-07-17 22:26:00,81.3,74.2,30.09,NE,54,0.0,0.0,79,0.00,,,0.00,Wunderground v.1.15,2013-07-18 02:26:00,
2013-07-17 22:31:00,81.3,74.2,30.09,NE,54,0.0,0.0,79,0.00,,,0.00,Wunderground v.1.15,2013-07-18 02:31:00,
2013-07-17 22:36:00,81.1,74.0,30.09,NE,53,0.0,0.0,79,0.00,,,0.00,Wunderground v.1.15,2013-07-18 02:36:00,
2013-07-17 22:41:00,81.0,73.9,30.09,NE,53,0.0,0.0,79,0.00,,,0.00,Wunderground v.1.15,2013-07-18 02:41:00,
2013-07-17 22:46:00,81.0,73.9,30.09,NE,54,0.0,0.0,79,0.00,,,0.00,Wunderground v.1.15,2013-07-18 02:46:00,
2013-07-17 22:51:00,81.2,74.1,30.09,NE,54,0.0,0.0,79,0.00,,,0.00,Wunderground v.1.15,2013-07-18 02:51:00,
2013-07-17 22:56:00,81.2,74.1,30.09,NE,54,0.0,0.0,79,0.00,,,0.00,Wunderground v.1.15,2013-07-18 02:56:00,
2013-07-17 23:01:00,81.1,74.0,30.09,NE,54,0.0,0.0,79,0.00,,,0.00,Wunderground v.1.15,2013-07-18 03:01:00,
2013-07-17 23:06:00,81.0,74.2,30.09,NE,53,0.0,0.0,80,0.00,,,0.00,Wunderground v.1.15,2013-07-18 03:06:00,
2013-07-17 23:12:00,80.8,74.0,30.10,NE,53,0.0,0.0,80,0.00,,,0.00,Wunderground v.1.15,2013-07-18 03:12:00,
2013-07-17 23:17:00,80.9,74.5,30.10,NE,54,0.0,0.0,81,0.00,,,0.00,Wunderground v.1.15,2013-07-18 03:17:00,
2013-07-17 23:22:00,80.7,74.3,30.09,NE,54,0.0,0.0,81,0.00,,,0.00,Wunderground v.1.15,2013-07-18 03:22:00,
2013-07-17 23:27:00,80.7,74.3,30.09,NE,54,0.0,0.0,81,0.00,,,0.00,Wunderground v.1.15,2013-07-18 03:27:00,
2013-07-17 23:32:00,80.7,74.7,30.10,NE,54,0.0,0.0,82,0.00,,,0.00,Wunderground v.1.15,2013-07-18 03:32:00,
2013-07-17 23:37:00,80.8,74.8,30.09,NE,54,0.0,0.0,82,0.00,,,0.00,Wunderground v.1.15,2013-07-18 03:37:00,
2013-07-17 23:42:00,80.7,74.7,30.09,NE,53,0.0,0.0,82,0.00,,,0.00,Wunderground v.1.15,2013-07-18 03:42:00,
2013-07-17 23:47:00,80.7,74.7,30.09,NE,54,0.0,0.0,82,0.00,,,0.00,Wunderground v.1.15,2013-07-18 03:47:00,
2013-07-17 23:52:00,80.7,74.7,30.09,NE,54,0.0,0.0,82,0.00,,,0.00,Wunderground v.1.15,2013-07-18 03:52:00,
2013-07-17 23:57:00,80.6,75.0,30.09,NE,54,0.0,0.0,83,0.00,,,0.00,Wunderground v.1.15,2013-07-18 03:57:00,